Location: *
(50.8512°N, 5.6907°E)
Time: 08:12:00
(UTC+00:00)

Cosmos 1825 Rocket - Pass Details

Date: 09 April 2020
Orbit: 604 x 631 km, 82.5° (Epoch: 06 June)

Event Time Altitude Azimuth Distance (km) Brightness Sun altitude
Rises 19:01:47 0° 347° (NNW) 2,909 7.5 -6.6°
Reaches altitude 10° 19:04:03 10° 345° (NNW) 1,994 6.7 -6.9°
Maximum altitude 19:08:25 68° 263° (W) 667 4.0 -7.5°
Drops below altitude 10° 19:12:44 10° 181° (S) 1,961 5.9 -8.2°
Sets 19:14:56 0° 179° (S) 2,857 6.7 -8.5°
